Temp
5 5 4 4 2 2 2 2 2 1 1 1 1 2 3 4 4 4 3 3 3 3
5 3 3 4 4 3 3 3 2 1 1 0 1 1 3 4 4 4 4 4 4 3
4 2 2 4 4 4 3 3 2 1 1 2 2 2 3 4 5 5 5 4 4 4
3 2 2 4 4 4 4 3 3 1 2 3 3 4 4 5 6 5 5 5 4 3
3 3 3 4 4 4 4 4 4 3 2 2 2 3 3 3 4 5 5 5 5 5
3 4 4 4 3 4 4 4 4 3 3 2 2 2 2 2 2 2 2 3 3 4
3 4 4 4 3 4 4 4 4 3 3 2 3 3 2 2 2 2 2 1 2 2
3 4 4 4 3 3 4 4 4 3 3 3 3 3 2 2 1 1 1 2 2 1
4 4 4 4 4 4 3 4 4 3 3 2 3 3 3 3 2 1 0 1 2 2
4 4 4 4 4 4 4 3 3 3 2 3 2 3 3 3 3 2 1 1 1 2
4 4 4 3 4 4 4 4 3 2 2 3 3 3 3 3 3 3 2 2 1 1
4 4 4 3 3 4 4 4 4 3 2 2 2 3 3 3 3 3 3 2 2 1
4 4 4 4 4 4 5 4 4 4 3 3 3 3 2 2 2 3 3 2 2 2
5 4 4 4 4 4 4 4 4 4 4 3 3 2 3 2 2 2 3 2 2 1
Height
812 807 802 797 793 787 780 772 765 757 750 744 740 737 735 734 733 733 733 734 735 735
813 809 804 796 791 786 779 772 764 754 746 740 737 736 735 733 732 732 732 732 733 733
814 811 804 797 791 786 780 772 764 753 744 737 735 735 735 733 732 732 731 732 732 733
815 811 805 797 792 787 781 773 766 757 746 740 739 739 737 735 733 732 732 731 730 731
817 811 805 799 794 788 782 776 770 763 753 749 744 742 740 738 735 734 732 731 730 729
817 811 806 801 796 790 784 778 773 767 761 754 751 747 744 741 738 736 735 733 731 729
818 811 807 802 799 792 786 781 777 771 766 761 756 752 749 746 743 740 737 734 732 729
819 813 809 804 800 794 789 784 780 776 770 765 760 756 752 749 747 743 739 735 732 728
820 815 811 805 800 796 792 787 783 779 774 769 764 760 756 752 749 746 741 737 732 729
821 817 813 808 803 798 794 791 786 782 778 773 768 763 758 754 752 748 744 740 735 732
823 819 815 811 806 801 797 793 789 786 781 776 771 765 761 757 754 751 748 744 739 736
825 821 816 813 808 803 799 795 791 788 785 780 775 770 765 760 756 753 750 748 744 740
826 822 819 815 810 806 802 798 794 790 787 783 778 774 769 765 761 756 753 750 747 744
828 824 821 817 813 808 804 800 796 792 788 785 781 777 772 768 764 760 756 753 750 748
Wind_Speed
24 24 24 24 24 25 28 28 29 28 28 25 17 14 14 9 5 4 5 9 8 12
25 27 27 27 23 24 27 30 29 32 28 24 14 10 11 9 7 5 4 7 8 9
24 26 26 25 26 25 28 30 28 37 32 26 11 6 7 7 6 5 1 3 4 4
24 23 25 24 25 26 26 29 29 35 37 28 15 9 10 11 9 6 4 4 3 5
23 22 23 24 24 26 25 26 29 31 36 30 29 20 19 19 13 12 11 10 8 7
23 23 23 24 23 25 26 24 25 28 32 28 25 24 21 19 17 16 14 14 13 12
22 22 23 22 23 23 24 24 26 26 26 28 23 22 21 19 19 16 15 14 12 13
20 20 21 22 21 21 23 24 22 24 26 26 24 24 21 18 19 19 18 16 16 13
20 19 20 20 21 21 22 23 23 24 24 25 23 24 20 17 17 18 24 19 20 17
19 20 19 19 20 20 19 21 21 23 24 23 27 26 22 16 16 18 20 27 18 18
19 19 18 19 20 19 19 19 19 21 23 23 26 28 25 18 16 16 18 21 22 16
18 17 18 17 18 19 18 17 17 17 21 21 24 27 27 20 16 16 16 17 21 21
17 16 16 16 17 17 17 16 17 17 17 20 21 24 25 24 18 16 16 15 16 19
17 15 14 14 15 17 17 17 16 17 16 17 20 23 23 23 20 18 15 15 16 16
Wind_Direction
349 349 347 346 342 335 331 334 335 331 331 335 327 328 318 316 284 247 262 246 232 260
353 353 340 341 350 344 339 337 342 339 333 336 336 324 317 322 327 300 268 251 243 234
357 350 338 337 353 356 347 344 352 349 349 355 7 357 327 342 329 323 227 258 292 239
357 353 344 348 355 358 353 352 1 1 8 23 39 32 360 356 6 355 304 294 272 249
354 354 353 355 357 0 2 3 7 11 15 25 34 32 21 5 8 1 7 360 337 304
353 355 1 1 356 2 4 9 15 14 17 16 31 29 24 17 15 9 358 346 342 320
354 356 3 4 2 358 8 12 18 16 16 18 27 31 28 24 20 18 13 2 338 317
357 359 2 8 7 359 9 15 22 17 18 17 20 24 25 25 23 17 7 5 11 351
358 2 1 3 8 10 11 11 19 19 15 21 19 14 13 20 10 14 18 5 359 13
357 2 4 358 7 10 13 13 13 21 14 12 12 20 16 16 24 24 17 17 7 12
358 1 6 4 0 6 10 9 18 15 19 12 11 17 18 15 19 13 18 19 16 19
357 359 3 8 355 2 5 6 9 15 15 10 12 15 15 14 13 14 21 19 19 24
354 359 2 4 356 3 4 10 9 9 13 11 6 12 15 15 12 6 11 18 17 18
356 359 1 358 359 1 6 4 10 10 9 11 7 3 10 12 12 -0 4 9 9 12